Home > Weather > Bad Kreuznach > Past weeks

Flag for Germany Weather for the Past 2 Weeks in Bad Kreuznach, Rhineland-Palatinate, Germany

Now
45 °F

Overcast.


Feels Like: 45 °F
Forecast: 35 / 62 °F
Wind: 2 mph from Northeast

Location: Wiesbaden Airport

Current Time: Apr 30, 2016 at 1:58:05 AM

Latest Report: Apr 30, 2016 at 12:58 AM


Visibility: N/A

Pressure: 30.04 "Hg

Humidity: 66%

Dew Point: 34 °F

Location of Bad KreuznachLocation

Historic Weather in Bad Kreuznach — Graph

°F

Bad Kreuznach Temperature Yesterday

Maximum temperature yesterday: 56 °F (at 4:58 PM)
Minimum temperature yesterday: 31 °F (at 4:58 AM)
Average temperature yesterday: 45 °F

High & Low Weather Summary for the Past Weeks

 TemperatureHumidityPressure
High67 °F (Apr 21, 5:58 PM)100% (Apr 16, 7:58 AM)30.46 "Hg (Apr 16, 7:58 AM)
Low31 °F (Apr 24, 6:58 AM)27% (Apr 20, 3:58 PM)29.58 "Hg (Apr 26, 1:03 AM)
Average47 °F66%29.96 "Hg
* Reported Apr 14 11:58 PM — Apr 29 11:58 PM, Bad Kreuznach, Weather by CustomWeather, © 2016

Note: Actual official high and low records may vary slightly from our data, if they occured in-between our weather recording intervals... More about our weather records

Advertising

Bad Kreuznach Weather History for the Previous 24 Hours

Scroll right to see more
 ConditionsComfort  
Time TempWeatherWind HumidityBarometerVisibility
11:58 PM
Fri, Apr 29
43 °FOvercast.1 mph76%30.03 "HgN/A
10:58 PM48 °FOvercast.2 mph54%30.04 "HgN/A
9:58 PM48 °FPartly cloudy.2 mph54%30.04 "HgN/A
8:58 PM50 °FScattered clouds.2 mph46%30.04 "HgN/A
7:58 PM52 °FPartly sunny.8 mph44%30.04 "HgN/A
6:58 PM54 °FSunny.8 mph44%30.04 "HgN/A
5:58 PM54 °FPassing clouds.12 mph41%30.05 "HgN/A
4:58 PM56 °FPartly sunny.16 mph39%30.06 "HgN/A
3:58 PM55 °FPassing clouds.14 mph41%30.06 "HgN/A
2:58 PM54 °FOvercast.13 mph40%30.06 "HgN/A
1:58 PM52 °FOvercast.10 mph43%30.07 "HgN/A
12:58 PM52 °FOvercast.6 mph47%30.06 "HgN/A
11:58 AM50 °FOvercast.8 mph62%30.07 "HgN/A
10:58 AM46 °FOvercast.3 mph71%30.08 "HgN/A
9:58 AM43 °FOvercast.2 mph75%30.09 "HgN/A
8:58 AM40 °FPassing clouds.2 mph82%30.08 "HgN/A
7:58 AM37 °FSunny.1 mph88%30.07 "HgN/A
6:58 AM31 °FClear.2 mph90%30.06 "HgN/A
5:58 AM31 °FPassing clouds.No wind90%30.06 "HgN/A
4:58 AM31 °FClear.No wind88%30.05 "HgN/A
2:58 AM32 °FClear.No wind93%30.05 "HgN/A
1:58 AM34 °FClear.No wind87%30.06 "HgN/A
Weather by CustomWeather, © 2016

See weather overviewHow to use our weather pages